Temperature
13 13 14 14 12 10 11 12 12 13 14 16 18 18 17 18 18 20 22 22 22 20 19 17 17 16 16 16 16 16 16 16 16 15 15 15 15 14 14 14 14 13 13 13 13 12 12 12 13
13 13 13 13 11 11 11 11 13 14 16 17 18 18 18 19 21 22 22 22 21 20 18 17 16 16 16 15 15 15 15 15 15 15 15 14 14 14 13 13 13 13 13 13 12 12 12 12 12
13 13 13 11 10 11 12 13 13 15 17 17 17 18 18 20 21 22 22 22 20 19 18 16 16 16 15 15 15 15 15 15 15 15 14 14 14 13 13 13 13 13 13 12 12 12 12 12 12
12 12 12 10 11 11 13 14 14 14 16 17 17 17 18 20 20 21 22 21 20 19 17 16 16 16 15 15 15 15 15 15 14 14 14 14 13 13 13 12 12 13 12 12 12 12 12 12 12
12 12 10 11 11 12 12 13 14 14 15 16 16 15 17 19 20 20 21 20 19 18 17 16 16 15 15 15 15 15 15 14 14 13 13 13 13 12 12 12 12 12 12 12 12 12 12 12 11
11 10 10 11 12 12 12 14 14 14 14 16 16 16 18 19 19 20 20 19 19 17 16 16 15 15 15 15 15 14 14 14 13 13 13 13 12 12 12 12 12 12 12 12 12 12 11 11 11
10 10 10 11 11 12 13 14 14 13 13 15 17 15 17 18 19 19 18 18 17 16 16 15 15 15 15 15 14 14 14 13 13 13 12 12 12 12 11 12 12 12 12 12 12 11 11 11 11
10 9 10 10 11 12 14 15 15 15 15 17 17 15 17 18 18 17 17 16 15 15 15 15 15 15 14 14 14 14 13 13 13 12 12 12 12 11 11 11 11 11 11 11 11 11 11 11 11
10 9 10 10 11 12 14 14 15 16 16 16 17 17 17 17 17 16 15 15 14 14 14 14 14 14 14 14 14 14 13 13 12 12 12 12 11 11 11 11 11 11 11 11 11 11 11 11 11
9 9 10 11 11 12 13 14 14 14 14 15 15 16 16 16 16 15 15 14 14 14 14 14 14 14 14 14 14 13 13 12 12 12 12 12 11 11 11 11 11 11 11 11 11 11 11 11 11
8 9 10 11 12 12 12 13 14 13 13 14 15 15 15 15 14 14 15 15 15 15 14 14 14 14 14 14 13 13 13 12 12 12 12 11 11 11 11 11 11 11 11 11 11 11 11 11 11
8 8 9 10 11 11 12 12 12 13 13 15 15 15 15 14 14 14 14 14 14 14 14 14 14 14 14 14 13 13 13 12 12 12 11 11 11 11 11 11 11 11 11 11 11 11 11 11 10
7 8 9 10 10 10 11 11 11 12 13 14 14 14 14 14 14 14 14 14 14 14 14 14 14 14 14 13 13 13 13 12 12 12 11 11 11 11 11 11 11 11 11 11 11 11 11 10 10
7 8 8 9 9 10 10 11 11 12 13 13 13 14 14 14 14 14 14 14 14 14 14 14 13 13 13 13 13 13 13 12 12 12 11 11 11 11 11 11 11 11 10 10 11 10 10 10 10
7 7 7 8 9 9 10 10 10 12 12 12 13 13 13 14 14 14 14 14 14 14 14 14 13 13 13 13 13 13 13 12 12 12 11 11 11 11 11 11 11 10 10 10 10 10 10 10 10
6 6 6 8 9 9 9 9 11 12 12 12 12 12 13 13 14 14 14 14 14 14 14 13 13 13 13 13 13 13 12 12 12 12 11 11 11 11 11 11 10 10 10 10 10 10 10 10 10
5 5 5 7 9 9 9 8 10 11 11 11 12 12 12 13 13 14 14 14 14 14 14 13 13 13 13 13 13 12 12 12 12 12 12 11 11 11 11 11 10 10 10 10 10 10 10 10 9
5 5 5 6 8 8 8 8 9 10 10 10 11 11 12 12 13 14 14 14 14 14 14 14 13 13 13 13 12 12 12 12 12 12 12 11 11 11 11 10 10 10 10 10 10 9 9 9 9
5 5 5 6 7 7 7 7 8 9 9 9 10 11 11 12 13 14 14 14 14 14 14 13 13 13 13 12 12 12 12 12 12 12 12 12 11 11 11 10 10 10 10 10 10 9 9 9 9
4 4 4 5 7 7 6 7 8 8 9 10 10 11 11 12 12 13 13 14 14 14 14 14 13 13 13 13 13 13 12 12 12 12 12 12 11 11 11 10 10 10 10 10 9 9 9 9 9
4 4 4 5 6 6 6 6 7 8 9 10 10 11 11 11 12 12 13 14 14 14 14 14 14 13 13 13 13 12 12 12 12 12 12 12 12 11 11 11 10 10 10 10 10 10 9 9 9
4 5 5 5 5 4 5 5 6 7 8 9 9 10 11 11 12 12 13 13 14 14 14 14 14 14 13 13 13 12 12 12 13 13 13 12 12 11 11 11 11 10 10 10 10 10 9 9 9
4 5 5 5 4 3 4 4 5 6 7 8 8 10 10 11 12 12 13 13 14 14 14 14 14 14 13 13 13 13 13 13 13 13 12 12 12 12 11 11 11 11 10 10 10 10 10 9 9
5 5 4 4 3 3 3 4 4 5 7 8 8 9 10 11 11 12 12 13 14 14 14 14 14 14 14 13 13 13 13 13 13 13 13 12 12 12 12 11 11 11 11 10 10 10 10 10 9
4 3 2 2 2 2 4 4 5 6 6 7 8 9 10 11 11 11 12 12 13 13 14 14 14 14 14 13 13 13 13 13 13 13 13 13 13 12 13 12 12 11 11 11 10 10 10 10 9
3 3 2 2 2 3 4 4 5 6 7 7 8 9 9 10 10 11 11 12 12 13 14 14 14 14 14 13 13 14 13 13 13 13 13 13 13 14 14 13 12 12 11 11 10 10 10 10 10
3 3 3 2 2 2 3 3 4 6 6 6 7 8 8 9 9 10 11 11 12 13 13 14 14 14 14 14 14 14 13 13 13 13 13 13 13 13 13 13 13 12 11 11 11 10 10 10 10
3 3 2 2 2 3 3 3 4 6 6 6 6 6 7 8 9 9 10 11 11 12 13 14 14 14 15 14 14 14 14 14 14 13 13 13 13 13 13 13 13 12 12 11 11 10 10 10 10
2 2 2 2 1 2 2 4 5 5 5 6 6 6 7 7 8 9 9 10 11 12 12 13 14 14 14 14 14 14 14 14 14 13 13 13 13 13 13 13 13 12 12 11 11 11 10 10 10
2 2 2 1 1 1 2 4 6 5 5 5 5 6 6 7 7 8 9 9 10 11 12 12 13 14 14 14 14 14 14 14 13 13 13 13 13 13 13 13 12 12 12 11 11 11 10 10 10
Wind_Speed
0 5 4 4 3 1 8 8 5 5 6 5 4 6 8 9 7 6 1 10 12 15 19 24 27 26 25 24 23 22 21 21 20 19 19 19 18 18 18 18 18 17 17 17 17 17 17 17 17
2 3 4 3 4 7 9 8 10 10 6 1 2 4 5 8 6 3 3 9 13 16 17 21 26 26 25 24 23 23 22 21 20 20 19 19 18 18 18 18 18 18 17 17 17 17 17 16 16
2 2 4 4 7 11 9 7 11 9 7 4 4 4 5 6 5 5 5 10 13 15 15 21 27 26 25 25 24 23 22 21 21 20 20 19 19 18 18 18 18 18 17 17 17 17 16 16 16
3 2 2 6 17 13 9 5 3 2 4 4 3 6 6 5 4 4 7 13 15 14 14 21 26 26 26 25 24 23 22 22 21 20 20 19 19 18 18 18 18 17 17 17 16 16 15 15 15
2 3 6 13 20 10 8 7 4 4 4 2 1 5 6 4 0 5 11 14 16 14 13 20 26 26 26 25 24 23 23 22 21 20 20 19 19 18 18 18 17 17 16 16 16 15 15 14 15
2 3 9 19 19 12 9 7 6 8 7 4 3 4 6 3 2 6 11 12 13 14 12 18 26 26 26 25 24 23 22 22 21 20 20 20 19 19 18 17 17 16 16 15 15 15 15 14 15
4 6 13 14 15 14 10 7 9 10 11 9 5 5 6 3 2 7 9 9 10 11 11 12 18 22 25 25 24 23 23 22 21 21 20 20 19 19 18 17 17 16 15 15 15 15 14 14 14
4 5 11 13 14 14 6 6 8 11 12 6 7 7 7 4 4 8 9 9 9 10 10 10 12 16 19 21 23 23 22 22 22 21 20 20 19 19 18 17 16 16 15 15 14 14 13 13 13
4 9 18 16 11 7 4 6 6 5 7 6 6 6 4 5 9 11 10 10 12 12 10 10 11 12 15 17 21 22 22 21 21 20 20 19 16 16 15 15 15 15 15 14 14 13 13 12 12
7 14 21 9 6 6 6 8 6 4 7 6 5 3 2 9 13 15 16 18 18 18 15 12 12 13 13 14 16 16 17 18 17 17 18 15 15 14 14 15 15 15 14 14 13 13 13 12 11
7 12 10 9 7 7 8 9 6 8 12 9 7 5 7 10 13 16 18 18 19 18 16 14 14 13 13 10 11 10 12 13 14 16 17 15 14 13 12 11 12 12 12 10 11 12 11 10 9
8 11 10 8 7 9 10 8 8 12 14 9 7 6 9 12 15 17 18 17 15 16 17 15 14 13 13 11 9 9 9 9 10 14 17 14 9 8 8 7 9 9 9 9 10 9 9 9 8
12 13 12 11 11 13 13 14 12 15 13 9 8 7 11 14 15 14 14 14 14 17 17 16 15 15 13 12 10 9 9 10 12 14 16 16 9 7 7 7 8 9 9 9 8 7 7 6 6
8 10 11 11 12 11 15 16 13 17 9 9 9 11 12 15 15 13 14 16 17 18 18 16 16 16 14 12 10 10 10 11 13 13 15 17 14 10 8 7 6 7 9 9 8 7 6 5 5
7 10 12 11 11 9 9 16 18 16 8 10 11 11 13 14 14 15 16 17 18 18 18 18 17 16 16 13 12 10 10 12 11 12 16 17 16 13 10 7 6 7 10 9 8 7 6 4 3
4 7 9 7 9 8 9 19 15 8 9 13 12 11 12 13 14 14 14 15 15 16 17 18 17 17 17 14 12 10 11 11 11 13 15 17 17 16 11 7 6 9 10 8 5 4 4 3 3
4 8 10 9 7 6 10 14 9 6 9 12 12 11 12 12 12 13 13 14 16 17 17 18 17 18 17 15 12 11 10 10 11 13 14 16 17 18 13 8 8 11 8 5 5 3 3 3 3
7 7 8 9 5 6 12 16 12 7 9 11 11 11 12 13 14 12 12 13 14 15 16 17 17 17 16 13 11 10 10 10 10 11 13 16 16 17 14 9 10 11 6 5 5 4 3 3 4
9 10 13 12 9 9 14 18 16 11 11 12 11 11 12 14 13 10 11 11 12 14 16 17 18 17 15 14 14 14 13 12 11 10 14 17 17 17 14 9 9 9 8 8 7 5 4 3 3
12 14 15 12 9 9 12 17 15 13 13 13 13 13 13 12 10 9 10 11 13 15 17 18 19 18 18 15 14 12 11 9 10 9 12 16 17 17 15 11 10 9 8 8 8 6 4 3 3
12 13 12 12 11 9 10 12 12 10 12 14 13 12 11 13 12 10 10 13 13 15 18 18 20 19 19 16 11 10 8 8 9 11 12 13 17 17 15 14 11 10 10 10 9 9 8 5 3
12 9 12 12 8 6 4 8 7 8 10 11 12 11 12 11 11 10 10 11 14 16 16 18 19 19 19 18 16 17 15 13 13 12 12 12 15 16 16 15 13 12 10 10 10 9 6 7 5
8 6 7 9 8 7 6 7 9 6 9 11 10 11 11 11 11 11 11 12 13 14 14 15 18 20 20 20 19 19 16 13 9 10 12 13 13 14 15 15 13 12 11 11 11 10 8 7 6
5 4 6 4 4 7 9 8 8 6 9 8 8 8 8 9 9 10 10 9 11 12 12 13 16 19 20 21 20 20 19 15 14 14 15 14 11 12 15 15 14 13 11 12 12 11 11 9 7
2 1 2 2 3 7 5 8 10 8 7 8 8 6 6 6 6 6 6 7 9 11 13 13 15 18 19 21 22 21 20 19 19 17 16 14 12 12 16 15 14 13 12 12 11 11 11 10 9
5 6 5 4 5 4 4 8 7 7 7 6 6 5 4 4 5 5 6 7 9 12 13 14 15 17 19 21 22 21 19 16 15 16 15 16 14 14 15 16 15 14 13 12 12 10 11 10 10
4 6 5 3 3 4 6 7 8 5 4 4 4 4 4 5 4 5 5 6 7 9 12 14 15 16 17 20 20 20 20 18 16 16 15 14 12 12 14 16 15 14 14 13 13 10 11 10 10
5 3 2 4 4 5 6 6 5 3 4 5 5 5 7 7 6 5 5 5 6 7 10 12 14 16 16 18 19 17 19 19 16 15 16 16 15 14 15 16 15 14 14 14 13 10 9 10 9
3 3 3 4 3 3 5 6 3 2 1 3 5 6 6 7 6 6 6 5 5 5 6 9 12 13 14 16 17 18 18 18 17 16 17 16 15 15 16 16 16 15 15 14 13 12 12 12 10
5 6 5 4 5 4 5 8 3 1 2 5 7 8 8 8 7 6 6 5 4 4 5 7 9 11 13 15 16 17 17 16 17 17 16 16 16 16 16 15 15 15 15 15 15 14 13 13 12
Wind_Direction
41 101 81 68 67 233 236 231 216 225 224 219 193 184 194 195 181 215 292 152 150 157 166 167 164 162 160 158 154 150 147 145 143 140 138 136 134 131 128 125 121 118 116 114 113 111 106 103 102
128 111 75 88 167 225 244 224 221 222 219 299 252 217 222 241 235 233 174 164 155 158 163 165 164 163 162 160 156 152 151 149 146 144 142 140 137 134 132 128 123 120 117 116 115 112 108 105 103
131 118 136 157 205 218 227 220 226 240 246 258 270 242 225 235 226 211 194 162 153 159 162 165 164 164 163 160 157 155 153 150 148 146 145 143 140 137 134 129 124 121 119 118 116 114 111 108 106
111 91 128 211 231 225 215 214 196 274 274 238 224 283 268 261 235 206 162 158 156 160 161 166 165 165 163 161 159 157 155 152 150 149 147 146 143 140 134 129 126 124 123 121 119 117 114 112 110
97 146 215 234 239 236 228 237 254 265 261 245 233 275 274 294 227 149 155 161 160 161 163 167 166 165 164 162 160 159 156 154 153 151 150 147 144 140 136 133 130 127 126 125 124 122 118 115 113
165 181 221 236 240 240 232 227 244 256 258 255 233 246 258 298 143 158 160 164 161 161 163 168 168 166 164 162 161 161 159 157 156 154 152 148 145 142 140 138 134 132 130 129 128 126 123 118 115
189 211 232 242 249 248 237 202 221 240 253 246 209 232 268 283 196 152 154 155 157 161 164 166 168 166 164 162 162 162 161 159 158 157 154 151 148 146 144 140 138 136 133 131 130 128 124 122 119
190 224 242 239 245 253 226 209 217 218 243 231 187 208 246 240 148 137 143 150 160 167 168 167 164 163 162 162 163 162 162 160 159 158 153 149 149 147 145 143 143 140 137 135 132 129 125 123 121
180 229 238 234 233 250 207 232 244 230 232 234 221 226 252 149 143 145 154 164 173 177 176 171 165 161 159 160 164 163 162 161 159 156 150 146 144 142 143 145 147 145 142 138 135 131 124 119 118
201 232 239 238 229 247 246 244 251 262 256 247 251 273 152 154 165 171 176 180 183 185 183 177 169 164 160 163 163 162 161 160 155 153 147 142 139 138 142 148 148 146 143 139 136 129 117 107 105
218 239 257 261 257 264 264 261 256 246 257 245 241 231 174 182 186 189 191 189 189 186 184 181 173 166 163 161 159 157 155 154 150 149 145 141 137 137 140 143 143 138 135 126 120 107 105 108 108
250 253 254 260 269 274 271 270 261 244 249 255 257 223 193 199 203 202 201 197 191 188 187 181 174 169 166 161 160 156 153 153 153 153 150 146 140 137 140 136 135 132 128 117 112 110 111 111 116
248 259 264 264 270 268 269 259 258 258 259 262 259 232 211 210 213 212 208 203 196 193 190 184 175 172 168 163 164 163 159 158 157 157 157 153 149 147 145 142 139 137 135 128 121 119 117 114 113
259 273 272 266 262 261 260 264 255 256 254 255 247 235 226 218 215 211 206 203 200 197 192 186 181 176 170 170 168 166 163 160 159 162 163 160 157 155 152 146 145 147 146 141 136 133 127 121 118
272 275 276 255 246 246 254 264 247 253 247 250 250 246 239 230 218 214 209 205 202 198 193 189 185 179 176 173 171 168 166 163 165 167 167 165 163 162 159 154 155 158 153 142 131 123 118 114 111
274 264 265 257 235 235 222 255 256 249 239 246 246 244 242 238 225 219 214 209 202 197 194 191 188 183 181 177 174 170 169 168 170 170 171 170 169 167 163 161 165 163 155 146 136 129 118 118 119
238 250 257 276 240 233 227 258 270 255 243 249 247 242 242 240 235 225 214 207 201 197 194 191 189 185 184 179 176 171 171 172 173 173 174 176 174 172 169 169 168 162 155 150 150 136 135 141 137
241 248 261 261 273 260 253 261 273 274 261 253 249 242 241 239 234 225 216 207 200 196 193 192 189 186 183 178 175 172 174 177 176 177 180 178 178 176 173 171 167 163 157 158 152 142 128 136 139
270 272 274 274 281 281 264 268 272 265 258 257 253 246 244 244 242 228 217 206 197 193 192 193 191 187 183 184 184 184 187 184 183 183 181 180 180 178 176 174 168 169 173 172 158 141 137 131 130
261 268 272 284 279 277 272 273 271 255 247 246 245 244 242 248 250 233 217 205 199 196 194 194 195 190 188 191 191 189 182 183 183 182 183 183 182 181 184 177 177 176 172 168 167 151 145 146 156
258 254 262 273 293 278 277 278 255 250 243 243 240 239 237 238 239 234 221 209 203 201 198 197 196 194 192 188 182 174 169 168 181 189 190 189 187 185 185 183 178 178 178 183 180 171 162 164 182
270 253 256 269 276 272 244 278 266 246 249 244 242 238 237 238 233 229 222 213 207 207 202 200 197 195 193 186 185 185 188 193 195 190 189 186 188 188 188 185 182 181 183 183 184 180 172 160 174
252 262 258 260 257 263 238 252 277 241 248 249 242 236 237 236 230 226 223 217 212 208 203 202 198 197 194 191 190 191 198 198 183 177 181 186 190 191 190 187 185 185 187 186 183 180 180 176 174
257 276 277 263 240 254 227 218 270 231 237 251 250 246 242 241 237 232 226 220 215 210 205 201 200 200 196 194 193 195 198 193 181 184 188 190 192 193 193 190 190 189 189 188 188 186 185 188 181
209 209 285 276 232 247 215 216 249 243 239 239 247 249 242 241 240 242 237 229 221 213 206 202 202 204 199 197 198 199 199 196 194 191 192 190 192 196 196 193 192 192 191 188 184 186 190 189 188
218 188 211 237 236 267 234 232 249 247 252 253 257 260 260 261 255 251 243 233 228 219 209 203 204 206 203 200 202 201 199 199 201 197 194 194 198 198 191 192 193 191 188 186 185 190 192 192 195
214 213 211 246 269 261 250 268 287 265 287 286 291 311 301 281 274 270 263 242 235 226 215 207 206 206 205 204 203 202 200 200 200 197 195 195 194 189 185 189 191 190 187 186 184 192 192 189 194
206 194 168 209 250 255 264 255 253 269 272 292 312 312 304 299 292 288 280 264 248 236 222 212 209 208 206 205 204 204 203 202 199 195 198 196 191 185 184 188 189 188 188 186 185 186 184 185 190
194 196 208 215 224 244 273 267 234 231 268 303 309 312 315 310 299 298 298 282 265 249 234 218 212 211 206 205 204 203 203 201 197 197 199 196 190 186 186 188 188 188 188 186 187 187 181 187 188
207 205 187 216 248 233 260 271 283 296 309 322 316 316 317 309 301 296 295 297 284 261 245 230 222 214 208 205 204 203 200 198 197 198 197 192 190 189 187 184 185 187 187 186 187 187 185 188 190
Height
1490 1491 1493 1496 1499 1503 1499 1489 1483 1480 1477 1473 1473 1473 1473 1474 1475 1475 1465 1463 1465 1468 1473 1478 1483 1487 1491 1495 1498 1500 1503 1505 1508 1510 1512 1514 1516 1518 1519 1520 1522 1523 1524 1525 1526 1528 1528 1529 1530
1487 1490 1493 1494 1499 1501 1492 1482 1479 1473 1470 1470 1470 1470 1469 1467 1466 1464 1461 1462 1464 1467 1472 1476 1482 1486 1491 1494 1497 1500 1503 1505 1507 1510 1512 1514 1516 1518 1519 1521 1522 1523 1525 1526 1527 1528 1529 1530 1531
1486 1488 1490 1491 1492 1486 1480 1473 1470 1467 1469 1469 1469 1467 1467 1463 1462 1461 1461 1461 1464 1467 1471 1476 1481 1485 1490 1493 1497 1499 1502 1505 1507 1509 1512 1514 1516 1518 1520 1521 1522 1524 1525 1526 1527 1529 1530 1531 1532
1484 1487 1487 1488 1478 1471 1469 1466 1466 1467 1467 1467 1467 1466 1463 1462 1460 1459 1459 1461 1463 1466 1471 1475 1480 1485 1489 1493 1496 1499 1502 1504 1507 1509 1512 1514 1516 1518 1520 1521 1522 1524 1525 1527 1528 1529 1531 1532 1533
1482 1483 1484 1478 1468 1464 1464 1464 1465 1466 1466 1465 1466 1464 1460 1459 1458 1458 1458 1460 1462 1466 1470 1475 1479 1484 1488 1492 1495 1498 1501 1504 1506 1509 1511 1514 1516 1518 1519 1521 1523 1524 1526 1527 1529 1530 1531 1533 1534
1479 1478 1478 1468 1461 1459 1461 1462 1464 1464 1463 1463 1464 1462 1457 1457 1457 1457 1458 1460 1462 1466 1470 1474 1479 1483 1487 1491 1494 1497 1500 1503 1506 1509 1511 1514 1516 1518 1519 1521 1523 1525 1526 1528 1529 1531 1532 1533 1534
1475 1474 1468 1463 1459 1457 1457 1460 1461 1461 1460 1460 1461 1460 1455 1455 1455 1456 1457 1460 1463 1466 1470 1474 1478 1483 1486 1490 1493 1497 1500 1502 1505 1508 1511 1513 1515 1517 1520 1522 1523 1525 1527 1528 1530 1531 1533 1534 1535
1470 1471 1463 1460 1458 1454 1455 1456 1455 1457 1455 1457 1458 1456 1453 1453 1454 1455 1457 1460 1463 1466 1470 1473 1477 1481 1485 1489 1492 1496 1499 1502 1505 1508 1510 1513 1515 1517 1520 1522 1524 1526 1527 1529 1530 1532 1533 1535 1536
1467 1468 1456 1452 1454 1453 1452 1453 1452 1452 1452 1452 1453 1452 1452 1452 1452 1453 1456 1459 1462 1465 1468 1472 1476 1479 1483 1487 1491 1494 1498 1501 1504 1507 1509 1512 1514 1517 1519 1522 1524 1526 1528 1529 1531 1532 1534 1535 1537
1462 1457 1446 1448 1450 1450 1450 1450 1450 1450 1449 1448 1448 1449 1449 1449 1450 1451 1452 1454 1457 1461 1465 1469 1473 1477 1481 1485 1489 1493 1496 1499 1503 1505 1508 1511 1513 1516 1519 1521 1524 1526 1528 1530 1531 1533 1534 1536 1537
1454 1450 1446 1447 1448 1448 1447 1447 1447 1447 1446 1445 1445 1445 1446 1447 1447 1448 1449 1450 1452 1456 1461 1466 1470 1475 1478 1482 1486 1490 1494 1497 1501 1504 1507 1510 1513 1515 1518 1521 1523 1525 1527 1529 1531 1533 1534 1536 1538
1451 1446 1446 1445 1446 1446 1445 1444 1444 1442 1440 1442 1443 1443 1443 1443 1444 1445 1446 1448 1451 1455 1458 1462 1467 1471 1475 1479 1484 1487 1491 1495 1498 1502 1505 1508 1511 1514 1517 1520 1523 1525 1527 1529 1531 1533 1535 1537 1539
1448 1444 1444 1443 1444 1443 1442 1440 1439 1436 1436 1438 1439 1439 1439 1439 1440 1442 1444 1447 1449 1452 1455 1459 1463 1468 1472 1477 1481 1485 1489 1492 1496 1500 1503 1506 1510 1513 1516 1519 1522 1524 1527 1529 1531 1533 1535 1537 1539
1445 1443 1441 1440 1439 1439 1438 1434 1434 1427 1432 1433 1433 1434 1434 1434 1436 1438 1440 1442 1445 1448 1452 1456 1460 1465 1469 1474 1478 1482 1486 1490 1494 1498 1501 1505 1508 1512 1515 1518 1521 1524 1526 1529 1531 1533 1535 1537 1539
1444 1442 1438 1435 1434 1434 1435 1430 1425 1423 1428 1428 1428 1428 1429 1430 1431 1432 1434 1437 1440 1444 1448 1452 1457 1461 1466 1470 1475 1480 1483 1488 1492 1495 1499 1503 1507 1510 1513 1517 1520 1523 1525 1528 1530 1533 1535 1537 1539
1443 1441 1438 1430 1429 1429 1434 1424 1417 1420 1422 1421 1422 1423 1423 1424 1425 1427 1430 1433 1436 1440 1445 1449 1454 1457 1462 1467 1472 1476 1481 1485 1489 1493 1497 1501 1505 1508 1512 1515 1518 1522 1524 1527 1529 1532 1534 1536 1538
1443 1441 1436 1430 1425 1425 1427 1420 1414 1416 1417 1416 1416 1417 1418 1418 1420 1422 1425 1428 1432 1435 1440 1444 1449 1453 1458 1464 1469 1473 1478 1482 1486 1490 1494 1498 1502 1506 1510 1513 1517 1520 1523 1526 1528 1531 1533 1535 1537
1439 1438 1434 1431 1424 1423 1422 1417 1413 1413 1413 1411 1411 1411 1412 1413 1413 1416 1419 1423 1427 1431 1436 1440 1445 1450 1455 1460 1465 1470 1474 1479 1483 1487 1491 1495 1499 1503 1507 1511 1514 1518 1521 1524 1526 1529 1532 1534 1536
1436 1435 1433 1427 1424 1424 1419 1414 1410 1408 1408 1407 1406 1406 1407 1407 1408 1411 1414 1418 1422 1426 1431 1434 1440 1445 1450 1455 1459 1464 1468 1473 1478 1483 1487 1492 1496 1500 1504 1508 1511 1515 1518 1521 1524 1527 1530 1532 1534
1435 1434 1431 1426 1422 1421 1417 1411 1405 1402 1401 1400 1400 1400 1401 1402 1403 1406 1409 1412 1415 1419 1424 1429 1434 1439 1443 1448 1453 1459 1464 1469 1474 1479 1483 1488 1492 1496 1500 1504 1508 1511 1515 1518 1521 1524 1527 1529 1532
1431 1432 1428 1426 1421 1419 1417 1408 1400 1395 1393 1393 1393 1393 1394 1396 1398 1400 1403 1405 1409 1413 1417 1422 1427 1432 1437 1443 1449 1455 1461 1466 1470 1473 1478 1482 1487 1492 1496 1500 1504 1508 1511 1515 1518 1521 1524 1526 1529
1427 1423 1423 1422 1425 1422 1418 1413 1398 1392 1389 1387 1387 1388 1388 1390 1392 1394 1397 1399 1402 1406 1411 1416 1421 1426 1431 1437 1443 1447 1451 1455 1460 1465 1472 1477 1482 1487 1492 1496 1500 1504 1508 1511 1515 1518 1521 1524 1526
1424 1420 1420 1420 1422 1423 1418 1419 1400 1391 1387 1383 1381 1381 1382 1384 1386 1388 1391 1393 1396 1401 1405 1410 1415 1420 1425 1431 1436 1441 1446 1451 1456 1462 1467 1473 1477 1482 1487 1491 1496 1500 1503 1507 1511 1514 1517 1520 1522
1420 1421 1420 1420 1422 1423 1413 1416 1401 1390 1382 1378 1377 1377 1377 1379 1381 1383 1385 1388 1391 1395 1399 1403 1408 1413 1418 1424 1429 1434 1439 1445 1450 1455 1461 1466 1471 1476 1481 1486 1490 1495 1499 1502 1506 1510 1513 1516 1519
1421 1425 1428 1429 1428 1420 1406 1405 1393 1381 1377 1375 1373 1373 1373 1374 1376 1377 1379 1381 1384 1388 1392 1396 1401 1406 1412 1417 1422 1427 1432 1438 1443 1448 1454 1459 1464 1469 1474 1479 1484 1489 1493 1498 1502 1506 1509 1512 1514
1419 1422 1427 1426 1422 1411 1403 1397 1385 1376 1373 1371 1370 1370 1370 1371 1372 1373 1374 1376 1379 1381 1385 1389 1394 1398 1404 1410 1414 1420 1426 1432 1437 1443 1448 1453 1457 1463 1468 1474 1479 1483 1488 1492 1497 1500 1504 1507 1510
1417 1418 1417 1420 1417 1414 1403 1393 1382 1373 1371 1370 1368 1367 1367 1367 1368 1368 1369 1371 1373 1375 1378 1382 1386 1391 1396 1402 1408 1413 1419 1424 1430 1435 1442 1447 1452 1458 1463 1468 1473 1478 1483 1487 1491 1495 1498 1502 1505
1414 1414 1418 1420 1417 1409 1400 1394 1383 1374 1371 1369 1367 1366 1365 1364 1364 1364 1365 1366 1368 1370 1373 1376 1380 1384 1389 1395 1400 1406 1411 1417 1423 1429 1434 1440 1445 1451 1457 1462 1467 1472 1477 1481 1485 1489 1493 1497 1499
1414 1414 1414 1415 1416 1412 1404 1388 1373 1371 1369 1369 1367 1366 1364 1363 1362 1361 1361 1362 1363 1364 1367 1370 1374 1378 1382 1387 1393 1399 1404 1410 1416 1422 1428 1433 1439 1445 1450 1455 1461 1466 1470 1475 1479 1483 1487 1491 1494
1409 1410 1412 1417 1416 1413 1407 1388 1369 1369 1368 1368 1367 1365 1363 1362 1360 1359 1358 1358 1358 1359 1361 1363 1367 1370 1375 1380 1385 1391 1397 1403 1409 1415 1421 1427 1432 1438 1443 1449 1454 1459 1464 1469 1473 1477 1481 1484 1487